Terminal Aerodrome Forecast
Issued by NWS

Home | Current Version | Previous Version | Text Only | Print | Product List | Glossary On
Versions: 1 2 3 4 5 6 7 8 9 10 11 12 13 14 15 16 17 18 19
000
FTUS44 KEWX 260800 AAA
TAFSSF
TAF AMD
KSSF 260800Z 2608/2706 15008KT P6SM FEW250
     FM260900 16005KT P6SM BKN011
     FM261500 17008KT P6SM FEW035
     FM262100 14011KT P6SM FEW060=

USA.gov is the U.S. government's official web portal to all federal, state and local government web resources and services.